Dickinson, ND

9:47 AM MST on February 27, 2017 (GMT -0700)
Dickinson Municipal

Weather History for KDIK - March, 2012

Change the Weather History Date:

Friday, March 16, 2012

  Actual Average Record
Temperature  
Mean Temperature 59 °F 30 °F  
Max Temperature 78 °F 41 °F 78 °F (2012)
Min Temperature 40 °F 19 °F -17 °F (1906)
Degree Days  
Heating Degree Days 6 35  
Month to date heating degree days 409 608  
Since 1 July heating degree days 5911 6902  
Cooling Degree Days 0 0  
Month to date cooling degree days 0 0  
Year to date cooling degree days 0 0  
Growing Degree Days 8 (Base 50)    
Moisture  
Dew Point 30 °F    
Average Humidity 43    
Maximum Humidity 70    
Minimum Humidity 15    
Precipitation  
Precipitation 0.00 in 0.02 in 0.20 in (1995)
Month to date precipitation 0.04 0.29  
Year to date precipitation 0.47 0.92  
Sea Level Pressure  
Sea Level Pressure 29.57 in    
Wind  
Wind Speed 10 mph (SW)    
Max Wind Speed 18 mph    
Max Gust Speed 23 mph    
Visibility 10 miles    
Events      
T = Trace of Precipitation, MM = Missing Value Source: NWS Daily Summary

Daily Weather History Graph

Daily Weather History Graph

Search for Another Location

Airport or City:

Trip Planner

Search our weather history database for the weather conditions in past years. The results will help you decide how hot, cold, wet, or windy it might be!

Date:

Astronomy

Mar. 16, 2012 Rise Set
Actual Time 7:00 AM MDT 6:59 PM MDT
Civil Twilight 6:30 AM MDT 7:29 PM MDT
Nautical Twilight 5:55 AM MDT 8:04 PM MDT
Astronomical Twilight 5:19 AM MDT 8:41 PM MDT
Moon 3:40 AM MDT (3/16) 1:02 PM MDT (3/16)
Length of Visible Light 12h 58m
Length of Day
11h 58m
Waning Crescent, 32% of the Moon is Illuminated
Mar 16
Waning Crescent
Mar 22
New
Mar 30
First Quarter
Apr 6
Full
Apr 13
Last Quarter

Hourly Weather History & Observations

Time (MDT) Temp. Windchill Dew Point Humidity Pressure Visibility Wind Dir Wind Speed Gust Speed Precip Events Conditions
1:56 AM 46.0 °F 39.0 °F 30.9 °F 56% 29.73 in 10.0 mi SSE 17.3 mph - N/A   Clear
2:56 AM 43.0 °F 36.4 °F 32.0 °F 65% 29.70 in 10.0 mi South 12.7 mph - N/A   Clear
3:56 AM 44.1 °F 37.1 °F 32.0 °F 63% 29.68 in 10.0 mi South 15.0 mph - N/A   Clear
4:56 AM 41.0 °F 33.5 °F 32.0 °F 70% 29.66 in 10.0 mi South 13.8 mph - N/A   Clear
5:56 AM 39.9 °F 31.8 °F 30.9 °F 70% 29.65 in 10.0 mi South 15.0 mph - N/A   Clear
6:56 AM 41.0 °F 33.5 °F 30.9 °F 67% 29.63 in 10.0 mi South 13.8 mph - N/A   Clear
7:56 AM 45.0 °F 40.1 °F 30.9 °F 58% 29.62 in 10.0 mi South 9.2 mph - N/A   Clear
8:56 AM 48.9 °F - 32.0 °F 52% 29.62 in 10.0 mi West 5.8 mph - N/A   Clear
9:56 AM 57.0 °F - 32.0 °F 39% 29.58 in 10.0 mi SSW 13.8 mph - N/A   Clear
11:56 AM 69.1 °F - 30.9 °F 24% 29.52 in 10.0 mi SSW 10.4 mph - N/A   Clear
12:56 PM 73.9 °F - 30.0 °F 20% 29.50 in 10.0 mi SW 13.8 mph 17.3 mph N/A   Clear
1:56 PM 73.9 °F - 30.0 °F 20% 29.49 in 10.0 mi SW 13.8 mph - N/A   Clear
2:56 PM 75.9 °F - 28.0 °F 17% 29.48 in 10.0 mi SW 13.8 mph - N/A   Clear
3:56 PM 77.0 °F - 28.0 °F 17% 29.47 in 10.0 mi WSW 10.4 mph - N/A   Clear
4:56 PM 77.0 °F - 27.0 °F 16% 29.47 in 10.0 mi SW 3.5 mph - N/A   Clear
5:56 PM 71.1 °F - 27.0 °F 19% 29.49 in 10.0 mi WSW 5.8 mph - N/A   Clear
6:56 PM 62.1 °F - 27.0 °F 26% 29.52 in 10.0 mi SSW 4.6 mph - N/A   Clear
7:56 PM 66.0 °F - 26.1 °F 22% 29.50 in 10.0 mi Calm Calm - N/A   Clear
8:56 PM 59.0 °F - 28.0 °F 31% 29.52 in 10.0 mi WNW 3.5 mph - N/A   Clear
9:56 PM 51.1 °F - 28.9 °F 43% 29.56 in 10.0 mi NW 11.5 mph - N/A   Clear
10:56 PM 54.0 °F - 33.1 °F 45% 29.56 in 10.0 mi NNW 9.2 mph - N/A   Clear
11:56 PM 51.1 °F - 34.0 °F 52% 29.56 in 10.0 mi NNW 9.2 mph - N/A   Clear